timestamp,wind_dir_avg,wind_spd_avg,wind_spd_max_dir,wind_spd_gust,battery_voltage,lat,long
2023-07-21 00:04:00+00:00,54.0,4.16,58.0,4.62,12.57,47.59359,-54.27349
2023-07-21 00:14:01+00:00,83.0,3.63,95.0,6.78,12.41,47.59359,-54.27349
2023-07-21 00:24:01+00:00,127.0,5.86,119.0,7.42,12.41,47.59359,-54.27349
2023-07-21 00:34:01+00:00,144.0,4.0,121.0,5.84,12.41,47.59359,-54.27349
2023-07-21 00:44:01+00:00,128.0,5.68,120.0,7.27,12.41,47.59359,-54.27349
2023-07-21 00:54:01+00:00,137.0,5.18,125.0,6.91,12.41,47.59359,-54.27349
2023-07-21 01:04:01+00:00,171.0,5.0,170.0,5.9,12.41,47.59359,-54.27349
2023-07-21 01:14:01+00:00,152.0,5.74,133.0,7.73,12.41,47.59359,-54.27349
2023-07-21 01:24:01+00:00,150.0,6.77,145.0,8.68,12.41,47.59359,-54.27349
2023-07-21 01:34:01+00:00,161.0,6.59,155.0,7.37,12.41,47.59359,-54.27349
2023-07-21 01:44:01+00:00,177.0,5.64,179.0,6.14,12.41,47.59359,-54.27349
2023-07-21 01:54:01+00:00,183.0,5.62,206.0,9.39,12.41,47.59359,-54.27349
2023-07-21 02:04:01+00:00,214.0,8.85,217.0,9.84,12.41,47.59359,-54.27349
2023-07-21 02:14:00+00:00,212.0,10.32,210.0,12.36,12.41,47.59359,-54.27349
2023-07-21 02:24:00+00:00,213.0,9.74,213.0,11.11,12.41,47.59359,-54.27349
2023-07-21 02:34:00+00:00,203.0,9.41,208.0,11.13,12.41,47.59359,-54.27349
2023-07-21 02:44:00+00:00,182.0,6.69,209.0,7.9,12.41,47.59359,-54.27349
2023-07-21 02:54:00+00:00,202.0,8.54,209.0,10.18,12.41,47.59359,-54.27349
2023-07-21 03:04:00+00:00,193.0,8.81,205.0,11.92,12.41,47.59359,-54.27349
2023-07-21 03:14:00+00:00,197.0,8.1,205.0,9.92,12.41,47.59359,-54.27349
2023-07-21 03:24:00+00:00,186.0,6.62,179.0,8.11,12.41,47.59359,-54.27349
2023-07-21 03:34:00+00:00,198.0,10.57,196.0,12.08,12.41,47.59359,-54.27349
2023-07-21 03:44:00+00:00,195.0,10.05,196.0,11.67,12.41,47.59359,-54.27349
2023-07-21 03:54:00+00:00,190.0,9.55,191.0,10.67,12.41,47.59359,-54.27349
2023-07-21 04:04:00+00:00,187.0,9.39,184.0,12.02,12.41,47.59359,-54.27349
2023-07-21 04:14:00+00:00,188.0,10.45,194.0,12.07,12.41,47.59359,-54.27349
2023-07-21 04:24:00+00:00,190.0,11.24,197.0,13.33,12.41,47.59359,-54.27349
2023-07-21 04:34:00+00:00,187.0,11.51,186.0,13.36,12.41,47.59359,-54.27349
2023-07-21 04:44:00+00:00,188.0,11.59,186.0,13.68,12.41,47.59359,-54.27349
2023-07-21 04:54:00+00:00,194.0,11.12,198.0,13.04,12.41,47.59359,-54.27349
2023-07-21 05:04:00+00:00,194.0,11.04,195.0,12.56,12.41,47.59359,-54.27349
2023-07-21 05:14:00+00:00,195.0,11.39,200.0,13.53,12.33,47.59359,-54.27349
2023-07-21 05:24:00+00:00,201.0,12.38,214.0,15.27,12.33,47.59359,-54.27349
2023-07-21 05:34:00+00:00,201.0,12.93,209.0,15.08,12.33,47.59359,-54.27349
2023-07-21 05:44:00+00:00,207.0,12.26,213.0,15.59,12.33,47.59359,-54.27349
2023-07-21 05:54:00+00:00,214.0,12.86,214.0,14.09,12.33,47.59359,-54.27349
2023-07-21 06:04:00+00:00,220.0,11.42,220.0,12.98,12.33,47.59359,-54.27349
2023-07-21 06:14:00+00:00,223.0,10.95,220.0,12.2,12.33,47.59359,-54.27349
2023-07-21 06:24:00+00:00,224.0,9.56,224.0,11.02,12.33,47.59359,-54.27349
2023-07-21 06:34:00+00:00,223.0,8.36,221.0,9.51,12.33,47.59359,-54.27349
2023-07-21 06:44:00+00:00,228.0,7.62,229.0,9.89,12.33,47.59359,-54.27349
2023-07-21 06:54:00+00:00,231.0,6.16,228.0,6.95,12.33,47.59359,-54.27349
2023-07-21 07:04:00+00:00,223.0,6.69,223.0,7.8,12.33,47.59359,-54.27349
2023-07-21 07:14:01+00:00,218.0,6.45,221.0,8.46,12.25,47.59359,-54.27349
2023-07-21 07:24:01+00:00,219.0,6.85,221.0,7.9,12.25,47.59359,-54.27349
2023-07-21 07:34:01+00:00,219.0,5.33,214.0,6.44,12.25,47.59359,-54.27349
2023-07-21 07:44:01+00:00,223.0,5.59,234.0,7.77,12.25,47.59359,-54.27349
2023-07-21 07:54:01+00:00,227.0,6.65,228.0,7.54,12.25,47.59359,-54.27349
2023-07-21 08:04:01+00:00,206.0,6.5,208.0,7.38,12.25,47.59359,-54.27349
2023-07-21 08:14:00+00:00,212.0,6.39,217.0,7.77,12.25,47.59359,-54.27349
2023-07-21 08:24:00+00:00,211.0,8.33,216.0,9.76,12.25,47.59359,-54.27349
2023-07-21 08:34:00+00:00,223.0,10.02,231.0,12.18,12.25,47.59359,-54.27349
2023-07-21 08:44:00+00:00,215.0,7.58,222.0,9.38,12.25,47.59359,-54.27349
2023-07-21 08:54:00+00:00,219.0,8.13,228.0,10.49,12.25,47.59359,-54.27349
2023-07-21 09:04:00+00:00,224.0,8.71,227.0,10.18,12.25,47.59359,-54.27349
2023-07-21 09:14:00+00:00,222.0,7.91,219.0,8.85,12.33,47.59359,-54.27349
2023-07-21 09:24:00+00:00,222.0,7.31,220.0,8.43,12.33,47.59359,-54.27349
2023-07-21 09:34:00+00:00,219.0,8.14,222.0,9.9,12.33,47.59359,-54.27349
2023-07-21 09:44:00+00:00,212.0,7.11,216.0,8.18,12.33,47.59359,-54.27349
2023-07-21 09:54:00+00:00,198.0,4.61,197.0,5.77,12.33,47.59359,-54.27349
2023-07-21 10:04:00+00:00,192.0,5.03,197.0,6.09,12.33,47.59359,-54.27349
2023-07-21 10:14:00+00:00,183.0,5.68,185.0,6.35,12.73,47.59359,-54.27349
2023-07-21 10:24:00+00:00,191.0,6.8,189.0,7.8,12.73,47.59359,-54.27349
2023-07-21 10:34:00+00:00,204.0,6.4,215.0,7.43,12.73,47.59359,-54.27349
2023-07-21 10:44:00+00:00,195.0,6.91,197.0,7.57,12.73,47.59359,-54.27349
2023-07-21 10:54:00+00:00,205.0,6.66,210.0,7.3,12.73,47.59359,-54.27349
2023-07-21 11:04:00+00:00,222.0,6.84,217.0,7.67,12.73,47.59359,-54.27349
2023-07-21 11:14:01+00:00,215.0,6.27,217.0,6.99,13.44,47.59359,-54.27349
2023-07-21 11:24:01+00:00,220.0,6.95,221.0,7.91,13.44,47.59359,-54.27349
2023-07-21 11:34:01+00:00,212.0,6.47,215.0,7.08,13.44,47.59359,-54.27349
2023-07-21 11:44:01+00:00,206.0,6.86,208.0,7.9,13.44,47.59359,-54.27349
2023-07-21 11:54:01+00:00,204.0,7.72,206.0,8.45,13.44,47.59359,-54.27349
2023-07-21 12:04:01+00:00,209.0,8.91,223.0,11.49,13.44,47.59359,-54.27349
2023-07-21 12:14:00+00:00,214.0,9.8,225.0,11.79,14.0,47.59359,-54.27349
2023-07-21 12:24:00+00:00,205.0,9.59,197.0,11.61,14.0,47.59359,-54.27349
2023-07-21 12:34:00+00:00,214.0,9.81,226.0,12.42,14.0,47.59359,-54.27349
2023-07-21 12:44:00+00:00,205.0,8.69,223.0,11.19,14.0,47.59359,-54.27349
2023-07-21 12:54:00+00:00,211.0,8.38,221.0,9.88,14.0,47.59359,-54.27349
2023-07-21 13:04:00+00:00,204.0,8.24,205.0,9.07,14.0,47.59359,-54.27349
2023-07-21 13:14:00+00:00,201.0,7.8,203.0,8.4,13.68,47.59359,-54.27349
2023-07-21 13:24:00+00:00,197.0,8.02,199.0,8.71,13.68,47.59359,-54.27349
2023-07-21 13:34:00+00:00,204.0,7.63,200.0,10.16,13.68,47.59359,-54.27349
2023-07-21 13:44:00+00:00,210.0,8.95,222.0,10.45,13.68,47.59359,-54.27349
2023-07-21 13:54:00+00:00,207.0,9.39,217.0,11.11,13.68,47.59359,-54.27349
2023-07-21 14:04:00+00:00,209.0,9.41,222.0,11.61,13.68,47.59359,-54.27349
2023-07-21 14:14:00+00:00,221.0,10.54,227.0,12.28,14.32,47.59359,-54.27349
2023-07-21 14:24:00+00:00,216.0,9.01,229.0,11.6,14.32,47.59359,-54.27349
2023-07-21 14:34:00+00:00,208.0,8.76,225.0,10.74,14.32,47.59359,-54.27349
2023-07-21 14:44:00+00:00,202.0,8.37,200.0,10.1,14.32,47.59359,-54.27349
2023-07-21 14:54:00+00:00,207.0,9.12,223.0,11.21,14.32,47.59359,-54.27349
2023-07-21 15:04:00+00:00,212.0,10.0,223.0,12.15,14.32,47.59359,-54.27349
2023-07-21 15:14:00+00:00,221.0,11.74,225.0,12.83,13.6,47.59359,-54.27349
2023-07-21 15:24:00+00:00,208.0,8.52,220.0,10.61,13.6,47.59359,-54.27349
2023-07-21 15:34:00+00:00,209.0,8.57,224.0,10.36,13.6,47.59359,-54.27349
2023-07-21 15:44:00+00:00,200.0,8.47,204.0,9.42,13.6,47.59359,-54.27349
2023-07-21 15:54:00+00:00,206.0,9.35,217.0,10.63,13.6,47.59359,-54.27349
2023-07-21 16:04:00+00:00,206.0,9.86,219.0,12.63,13.6,47.59359,-54.27349
2023-07-21 16:14:00+00:00,220.0,12.33,226.0,14.06,14.32,47.59359,-54.27349
2023-07-21 16:24:00+00:00,223.0,11.89,226.0,13.48,14.32,47.59359,-54.27349
2023-07-21 16:34:00+00:00,216.0,10.37,227.0,12.46,14.32,47.59359,-54.27349
2023-07-21 16:44:00+00:00,206.0,8.63,217.0,9.9,14.32,47.59359,-54.27349
2023-07-21 16:54:00+00:00,204.0,7.91,201.0,8.87,14.32,47.59359,-54.27349
2023-07-21 17:04:00+00:00,200.0,9.48,207.0,10.28,14.32,47.59359,-54.27349
2023-07-21 17:14:00+00:00,200.0,9.35,204.0,10.59,14.24,47.59359,-54.27349
2023-07-21 17:24:00+00:00,203.0,9.32,215.0,11.05,14.24,47.59359,-54.27349
2023-07-21 17:34:00+00:00,207.0,10.41,213.0,11.9,14.24,47.59359,-54.27349
2023-07-21 17:44:00+00:00,207.0,9.7,222.0,11.29,14.24,47.59359,-54.27349
2023-07-21 17:54:00+00:00,218.0,10.15,230.0,12.39,14.24,47.59359,-54.27349
2023-07-21 18:04:00+00:00,216.0,7.64,213.0,8.47,14.24,47.59359,-54.27349
2023-07-21 18:14:00+00:00,217.0,8.3,222.0,10.06,13.84,47.59359,-54.27349
2023-07-21 18:24:00+00:00,222.0,8.81,224.0,10.68,13.84,47.59359,-54.27349
2023-07-21 18:34:00+00:00,226.0,9.33,228.0,10.67,13.84,47.59359,-54.27349
2023-07-21 18:44:00+00:00,218.0,9.45,222.0,10.98,13.84,47.59359,-54.27349
2023-07-21 18:54:00+00:00,211.0,9.19,214.0,10.31,13.84,47.59359,-54.27349
2023-07-21 19:04:00+00:00,206.0,8.51,220.0,9.96,13.84,47.59359,-54.27349
2023-07-21 19:14:00+00:00,204.0,9.11,210.0,10.34,13.6,47.59359,-54.27349
2023-07-21 19:24:00+00:00,205.0,8.46,210.0,9.58,13.6,47.59359,-54.27349
2023-07-21 19:34:00+00:00,199.0,8.28,201.0,9.19,13.6,47.59359,-54.27349
2023-07-21 19:44:00+00:00,203.0,8.26,204.0,9.17,13.6,47.59359,-54.27349
2023-07-21 19:54:00+00:00,203.0,8.38,203.0,9.24,13.6,47.59359,-54.27349
2023-07-21 20:04:00+00:00,198.0,7.6,196.0,8.46,13.6,47.59359,-54.27349
2023-07-21 20:14:00+00:00,205.0,7.93,206.0,8.74,13.68,47.59359,-54.27349
2023-07-21 20:24:00+00:00,201.0,8.02,202.0,8.62,13.68,47.59359,-54.27349
2023-07-21 20:34:00+00:00,199.0,7.36,199.0,7.95,13.68,47.59359,-54.27349
2023-07-21 20:44:00+00:00,196.0,5.88,194.0,6.58,13.68,47.59359,-54.27349
2023-07-21 20:54:00+00:00,197.0,6.77,195.0,7.2,13.68,47.59359,-54.27349
2023-07-21 21:04:00+00:00,200.0,6.27,202.0,6.93,13.68,47.59359,-54.27349
2023-07-21 21:14:00+00:00,198.0,6.89,204.0,7.64,13.37,47.59359,-54.27349
2023-07-21 21:24:00+00:00,193.0,6.21,192.0,6.85,13.37,47.59359,-54.27349
2023-07-21 21:34:00+00:00,194.0,5.36,196.0,5.83,13.37,47.59359,-54.27349
2023-07-21 21:44:00+00:00,197.0,5.34,197.0,6.0,13.37,47.59359,-54.27349
2023-07-21 21:54:00+00:00,204.0,4.66,206.0,5.18,13.37,47.59359,-54.27349
2023-07-21 22:04:00+00:00,200.0,5.44,198.0,6.17,13.37,47.59359,-54.27349
2023-07-21 22:14:00+00:00,197.0,4.63,197.0,5.08,13.05,47.59359,-54.27349
2023-07-21 22:24:00+00:00,195.0,4.54,194.0,5.09,13.05,47.59359,-54.27349
2023-07-21 22:34:00+00:00,202.0,5.22,201.0,5.62,13.05,47.59359,-54.27349
2023-07-21 22:44:00+00:00,201.0,5.58,205.0,6.11,13.05,47.59359,-54.27349
2023-07-21 22:54:00+00:00,205.0,5.55,209.0,6.29,13.05,47.59359,-54.27349
2023-07-21 23:04:00+00:00,203.0,5.55,202.0,6.05,13.05,47.59359,-54.27349
2023-07-21 23:14:00+00:00,203.0,5.26,209.0,5.65,12.57,47.59359,-54.27349
2023-07-21 23:24:00+00:00,206.0,4.38,203.0,4.75,12.57,47.59359,-54.27349
2023-07-21 23:34:00+00:00,202.0,3.64,199.0,4.0,12.57,47.59359,-54.27349
2023-07-21 23:44:00+00:00,196.0,4.31,196.0,4.69,12.57,47.59359,-54.27349
2023-07-21 23:54:00+00:00,200.0,4.72,201.0,5.21,12.57,47.59359,-54.27349
